Satellite: NO-45
Catalog number: 26932
Epoch time: 07004.79020262
Element set: 495
Inclination: 067.0524 deg
RA of node: 208.1252 deg
Eccentricity: 0.0003322
Arg of perigee: 259.1306 deg
Mean anomaly: 100.9421 deg
Mean motion: 14.29545675 rev/day
Decay rate: -5.9e-07 rev/day^2
Epoch rev: 27478
Checksum: 287
Satellite: UWE-1
Catalog number: 28892
Epoch time: 07003.46615061
Element set: 644
Inclination: 098.1479 deg
RA of node: 263.2185 deg
Eccentricity: 0.0016327
Arg of perigee: 267.1615 deg
Mean anomaly: 092.7696 deg
Mean motion: 14.59447735 rev/day
Decay rate: 1.13e-06 rev/day^2
Epoch rev: 6318
Checksum: 316
Satellite: CO-58
Catalog number: 28895
Epoch time: 07003.65602363
Element set: 626
Inclination: 098.1503 deg
RA of node: 263.5557 deg
Eccentricity: 0.0016859
Arg of perigee: 267.0567 deg
Mean anomaly: 092.8687 deg
Mean motion: 14.59498188 rev/day
Decay rate: 1.85e-06 rev/day^2
Epoch rev: 6309
Checksum: 360
Satellite: NCUBE2
Catalog number: 28897
Epoch time: 07002.72067334
Element set: 165
Inclination: 098.1477 deg
RA of node: 262.6063 deg
Eccentricity: 0.0016422
Arg of perigee: 272.0201 deg
Mean anomaly: 087.9104 deg
Mean motion: 14.59656440 rev/day
Decay rate: 1.58e-06 rev/day^2
Epoch rev: 5523
Checksum: 290
Satellite: NMARS
Catalog number: 29662
Epoch time: 07004.85863090
Element set: 24
Inclination: 051.6423 deg
RA of node: 227.0339 deg
Eccentricity: 0.0014319
Arg of perigee: 076.0062 deg
Mean anomaly: 284.2611 deg
Mean motion: 15.83924747 rev/day
Decay rate: 7.0998e-04 rev/day^2
Epoch rev: 224
Checksum: 289
